Date String (YYYY-MM-DD hh:mm:ss) UTC,Instrument flags,absolute air pressure of the measurement (hPa),sample flow rate (lpm),inlet stack bypass flow (lpm),air temperature of the measurement (°C),ambient temperature measured by the external sensor (°C),aerosol sample conditioner tube jacket temperature (°C),OPC LED temperature (°C),internal box temperature (°C),relative humidity of the measurement (%),span deviation,mass concentration of particles derived from Lorenz-Mie calculation of OPC scattering (μg/m³),mass concentration of particles derived from Lorenz-Mie calculation of OPC scattering (μg/m³),mass concentration of particles derived from Lorenz-Mie calculation of OPC scattering (μg/m³)
DateTimeUTC,F1_M11,P_M11,Q1_M11,Q2_M11,T1_M11,T2_M11,T3_M11,T4_M11,T5_M11,U1_M11,ZSPAN_M11,X2_M11,X0_M11,X1_M11
2023-09-29 10:00:00,SystemResetWarning,0826.6,5.00,000.00,028.8,027.6,000.0,037.2,030.5,19.7,0000.0,0006.57,0020.92,0004.90
2023-09-29 10:01:00,SystemResetWarning,0826.6,5.00,000.00,028.8,027.6,000.0,037.2,030.5,20.3,0000.0,0006.56,0020.96,0004.90
2023-09-29 10:02:00,SystemResetWarning,0826.6,5.00,000.00,028.8,027.6,000.0,037.2,030.6,20.3,0000.0,0006.51,0020.76,0004.89
2023-09-29 10:03:00,SystemResetWarning,0826.6,5.00,000.00,028.9,027.7,000.0,037.2,030.6,20.3,0000.0,0006.51,0020.28,0004.87
2023-09-29 10:04:00,SystemResetWarning,0826.6,5.00,000.00,028.9,027.7,000.0,037.2,030.6,20.5,0000.0,0006.55,0020.87,0004.87
2023-09-29 10:05:00,SystemResetWarning,0826.6,5.01,000.00,028.9,027.7,000.0,037.2,030.6,20.5,0000.0,0006.54,0020.72,0004.87
2023-09-29 10:06:00,SystemResetWarning,0826.6,4.99,000.00,028.9,027.3,000.0,037.2,030.6,20.5,0000.0,0006.50,0019.44,0004.88
2023-09-29 10:07:00,SystemResetWarning,0826.6,4.99,000.00,028.9,025.4,000.0,037.2,030.4,20.5,0000.0,0006.48,0019.57,0004.87
2023-09-29 10:08:00,SystemResetWarning,0826.6,5.00,000.00,028.8,024.5,000.0,037.1,030.3,20.6,0000.0,0006.41,0018.88,0004.88
2023-09-29 10:09:00,SystemResetWarning,0826.6,5.01,000.00,028.6,024.5,000.0,037.1,030.0,20.8,0000.0,0006.39,0018.81,0004.89
2023-09-29 10:10:00,SystemResetWarning,0826.6,5.01,000.00,028.5,024.8,000.0,037.1,029.9,21.1,0000.0,0006.39,0018.50,0004.88
2023-09-29 10:11:00,SystemResetWarning,0826.6,5.00,000.00,028.5,025.2,000.0,037.1,029.9,21.2,0000.6,0006.39,0017.93,0004.87
2023-09-29 10:12:00,SystemResetWarning,0826.6,4.99,000.00,028.4,025.6,000.0,037.1,030.0,21.3,0000.0,0006.38,0017.74,0004.86
2023-09-29 10:13:00,SystemResetWarning,0826.6,5.01,000.00,028.4,025.9,000.0,037.1,030.0,21.3,0000.0,0006.43,0018.70,0004.86
2023-09-29 10:14:00,SystemResetWarning,0826.6,5.01,000.00,028.4,026.2,000.0,037.0,030.0,21.4,0000.0,0006.44,0018.76,0004.86
2023-09-29 10:15:00,SystemResetWarning,0826.6,5.00,000.00,028.4,026.4,000.0,037.0,030.1,21.4,0000.0,0006.44,0018.74,0004.85
2023-09-29 10:16:00,SystemResetWarning,0826.5,4.99,000.00,028.4,026.6,000.0,037.0,030.1,21.5,0000.0,0006.49,0018.89,0004.86
2023-09-29 10:17:00,SystemResetWarning,0826.5,5.00,000.00,028.4,026.7,000.0,037.0,030.1,21.5,0000.0,0006.51,0018.60,0004.85
2023-09-29 10:18:00,SystemResetWarning,0826.6,5.01,000.00,028.4,026.8,000.0,037.0,030.1,21.5,0000.0,0006.54,0020.09,0004.88
2023-09-29 10:19:00,SystemResetWarning,0826.6,5.00,000.00,028.5,026.9,000.0,037.0,030.2,21.5,0000.0,0006.59,0020.81,0004.87
2023-09-29 10:20:00,SystemResetWarning,0826.6,5.00,000.00,028.5,027.0,000.0,037.0,030.2,21.5,0000.0,0006.68,0021.43,0004.88
2023-09-29 10:21:00,SystemResetWarning,0826.6,5.00,000.00,028.5,027.1,000.0,037.0,030.2,21.5,0000.0,0006.70,0021.50,0004.88
2023-09-29 10:22:00,SystemResetWarning,0826.6,5.00,000.00,028.5,027.1,000.0,037.0,030.3,21.5,0000.0,0006.74,0021.95,0004.88
2023-09-29 10:23:00,SystemResetWarning,0826.6,5.00,000.00,028.5,027.2,000.0,037.0,030.3,21.4,0000.0,0006.78,0021.85,0004.88
2023-09-29 10:24:00,SystemResetWarning,0826.6,5.00,000.00,028.6,027.2,000.0,037.0,030.3,21.4,0000.0,0006.80,0021.07,0004.90
2023-09-29 10:25:00,SystemResetWarning,0826.6,5.00,000.00,028.6,027.3,000.0,037.0,030.3,21.4,0000.0,0006.80,0021.44,0004.91
2023-09-29 10:26:00,SystemResetWarning,0826.6,4.99,000.00,028.6,027.3,000.0,037.0,030.3,21.5,0001.1,0006.81,0021.57,0004.92
2023-09-29 10:27:00,SystemResetWarning,0826.7,5.00,000.00,028.6,027.4,000.0,037.0,030.4,21.5,0001.7,0006.81,0021.73,0004.92
2023-09-29 10:28:00,SystemResetWarning,0826.8,5.01,000.00,028.6,027.4,000.0,037.0,030.4,21.4,0001.0,0006.83,0021.65,0004.92
2023-09-29 10:29:00,SystemResetWarning,0826.8,5.01,000.00,028.7,027.4,000.0,037.0,030.4,21.3,0002.6,0006.81,0019.82,0004.90
2023-09-29 10:30:00,SystemResetWarning,0826.8,5.00,000.00,028.7,027.4,000.0,037.1,030.4,21.3,0002.5,0006.85,0019.16,0004.88
2023-09-29 10:31:00,SystemResetWarning,0826.8,4.99,000.00,028.7,027.5,000.0,037.1,030.5,21.4,0002.6,0006.82,0018.24,0004.87
2023-09-29 10:32:00,SystemResetWarning,0826.8,4.99,000.00,028.7,027.5,000.0,037.1,030.5,21.5,0001.1,0006.83,0018.56,0004.87
2023-09-29 10:33:00,SystemResetWarning,0826.8,5.00,000.00,028.7,027.5,000.0,037.1,030.5,21.8,0000.0,0006.84,0018.25,0004.87
2023-09-29 10:34:00,SystemResetWarning,0826.8,5.00,000.00,028.8,027.6,000.0,037.1,030.5,22.0,0000.2,0006.78,0019.82,0004.88
2023-09-29 10:35:00,SystemResetWarning,0826.8,5.01,000.00,028.8,027.6,000.0,037.1,030.5,21.9,0000.5,0006.72,0020.13,0004.87
2023-09-29 10:36:00,SystemResetWarning,0826.8,5.00,000.00,028.8,027.6,000.0,037.1,030.6,21.8,0000.0,0006.76,0020.05,0004.88
2023-09-29 10:37:00,SystemResetWarning,0826.9,5.00,000.00,028.8,027.6,000.0,037.2,030.6,21.8,0000.0,0006.84,0020.15,0004.88
2023-09-29 10:38:00,SystemResetWarning,0826.8,4.99,000.00,028.8,027.6,000.0,037.2,030.6,21.7,0001.3,0006.81,0019.29,0004.86
2023-09-29 10:39:00,SystemResetWarning,0826.8,4.99,000.00,028.9,027.6,000.0,037.2,030.6,21.8,0000.6,0006.75,0019.69,0004.86
2023-09-29 10:40:00,SystemResetWarning,0826.8,5.00,000.00,028.9,027.6,000.0,037.2,030.6,21.8,0000.0,0006.74,0019.70,0004.85
2023-09-29 10:41:00,SystemResetWarning,0826.8,5.00,000.00,028.9,027.7,000.0,037.2,030.6,21.7,0000.0,0006.74,0019.57,0004.86
2023-09-29 10:42:00,SystemResetWarning,0826.9,5.00,000.00,028.9,027.7,000.0,037.2,030.7,21.7,0000.0,0006.75,0019.67,0004.86
2023-09-29 10:43:00,SystemResetWarning,0826.9,5.00,000.00,028.9,027.7,000.0,037.3,030.7,21.7,0000.0,0006.74,0019.42,0004.86
2023-09-29 10:44:00,SystemResetWarning,0827.0,5.00,000.00,028.9,027.7,000.0,037.3,030.7,21.7,0000.0,0006.72,0020.12,0004.87
2023-09-29 10:45:00,SystemResetWarning,0827.0,5.00,000.00,029.0,027.7,000.0,037.3,030.7,21.6,0000.0,0006.74,0020.41,0004.87
2023-09-29 10:46:00,SystemResetWarning,0827.0,5.00,000.00,029.0,027.4,000.0,037.3,030.7,21.5,0000.0,0006.74,0020.00,0004.85
2023-09-29 10:47:00,SystemResetWarning,0827.0,4.99,000.00,028.9,025.4,000.0,037.3,030.5,21.6,0000.0,0006.71,0019.51,0004.83
2023-09-29 10:48:00,SystemResetWarning,0827.0,5.02,000.00,028.8,024.5,000.0,037.2,030.3,21.7,0000.0,0006.70,0019.58,0004.84
2023-09-29 10:49:00,SystemResetWarning,0827.0,5.01,000.00,028.7,024.5,000.0,037.2,030.1,21.8,0000.0,0006.66,0020.59,0004.84
2023-09-29 10:50:00,SystemResetWarning,0827.0,5.00,000.00,028.6,024.8,000.0,037.2,029.9,21.9,0000.0,0006.72,0021.10,0004.84
2023-09-29 10:51:00,SystemResetWarning,0827.0,5.00,000.00,028.5,025.2,000.0,037.2,030.0,21.9,0000.0,0006.76,0021.32,0004.84
2023-09-29 10:52:00,SystemResetWarning,0827.1,5.00,000.00,028.5,025.6,000.0,037.1,030.0,21.9,0000.0,0006.81,0023.38,0004.85
2023-09-29 10:53:00,SystemResetWarning,0827.1,4.99,000.00,028.5,025.9,000.0,037.1,030.0,21.7,0000.0,0006.78,0024.16,0004.85
2023-09-29 10:54:00,SystemResetWarning,0827.1,5.00,000.00,028.4,026.1,000.0,037.1,030.1,21.6,0000.0,0006.79,0023.74,0004.86
2023-09-29 10:55:00,SystemResetWarning,0827.1,5.00,000.00,028.5,026.4,000.0,037.1,030.1,21.6,0000.0,0006.84,0023.01,0004.86
2023-09-29 10:56:00,SystemResetWarning,0827.1,5.01,000.00,028.5,026.5,000.0,037.1,030.1,21.6,0000.0,0006.90,0021.62,0004.86
2023-09-29 10:57:00,SystemResetWarning,0827.1,5.01,000.00,028.5,026.7,000.0,037.0,030.1,21.4,0000.0,0006.88,0021.77,0004.87
2023-09-29 10:58:00,SystemResetWarning,0827.0,5.00,000.00,028.5,026.8,000.0,037.0,030.2,21.6,0000.0,0006.91,0022.40,0004.87
2023-09-29 10:59:00,SystemResetWarning,0827.1,5.00,000.00,028.5,026.9,000.0,037.0,030.2,21.6,0000.0,0006.88,0022.20,0004.86
